| time (UTC) | temp F | wind direction | speed knots | gust knots | rain 1hr in | rain 24hr in | rain mn in | humidity % | barometer mb |
| 20260502233037 | 90 | 312 | 7.8 | 13.0 | 0.00 | 0.00 | 0.00 | 66 | 1007.7 |
| 20260502231525 | 90 | 300 | 8.7 | 13.9 | 0.00 | 0.00 | 0.00 | 66 | 1007.8 |
| 20260502230032 | 91 | 360 | 9.6 | 15.6 | 0.00 | 0.00 | 0.00 | 64 | 1007.7 |
| 20260502224524 | 91 | 315 | 10.4 | 16.5 | 0.00 | 0.00 | 0.00 | 61 | 1007.2 |
| 20260502223036 | 93 | 333 | 9.6 | 13.9 | 0.00 | 0.00 | 0.00 | 60 | 1007.3 |
| 20260502221522 | 93 | 339 | 12.2 | 18.2 | 0.00 | 0.00 | 0.00 | 59 | 1007.5 |
| 20260502220024 | 93 | 329 | 10.4 | 17.4 | 0.00 | 0.00 | 0.00 | 58 | 1007.5 |
| 20260502214523 | 93 | 306 | 10.4 | 23.5 | 0.00 | 0.00 | 0.00 | 57 | 1007.3 |
| 20260502213024 | 94 | 315 | 13.0 | 20.0 | 0.00 | 0.00 | 0.00 | 55 | 1007.3 |
| 20260502211520 | 97 | 296 | 9.6 | 20.0 | 0.00 | 0.00 | 0.00 | 51 | 1007.3 |
| 20260502210020 | 97 | 302 | 13.0 | 22.6 | 0.00 | 0.00 | 0.00 | 50 | 1007.5 |
| 20260502204519 | 98 | 303 | 13.9 | 22.6 | 0.00 | 0.00 | 0.00 | 47 | 1007.3 |
| 20260502203018 | 98 | 355 | 14.8 | 22.6 | 0.00 | 0.00 | 0.00 | 50 | 1007.1 |
| 20260502200016 | 98 | 319 | 10.4 | 17.4 | 0.00 | 0.00 | 0.00 | 54 | 1007.2 |
| 20260502194528 | 99 | 5 | 12.2 | 16.5 | 0.00 | 0.00 | 0.00 | 54 | 1007.3 |
| 20260502193012 | 97 | 31 | 9.6 | 16.5 | 0.00 | 0.00 | 0.00 | 56 | 1007.5 |
| 20260502191510 | 101 | 355 | 7.0 | 11.3 | 0.00 | 0.00 | 0.00 | 47 | 1007.3 |
| 20260502190006 | 102 | 316 | 4.3 | 12.2 | 0.00 | 0.00 | 0.00 | 46 | 1007.6 |
| 20260502184501 | 101 | 268 | 5.2 | 11.3 | 0.00 | 0.00 | 0.00 | 48 | 1007.8 |
| 20260502183058 | 99 | 310 | 7.8 | 13.0 | 0.00 | 0.00 | 0.00 | 50 | 1008.1 |
| 20260502181554 | 99 | 282 | 5.2 | 11.3 | 0.00 | 0.00 | 0.00 | 51 | 1008.3 |
| 20260502163044 | 95 | 161 | 4.3 | 8.7 | 0.00 | 0.00 | 0.00 | 57 | 1009.4 |
| 20260502161527 | 94 | 227 | 0.9 | 11.3 | 0.00 | 0.00 | 0.00 | 60 | 1009.4 |
| 20260502151525 | 90 | 142 | 9.6 | 15.6 | 0.00 | 0.00 | 0.00 | 68 | 1009.5 |
| 20260502123038 | 80 | 121 | 8.7 | 12.2 | 0.00 | 0.00 | 0.00 | 84 | 1008.8 |
| 20260502121526 | 80 | 96 | 6.1 | 12.2 | 0.00 | 0.00 | 0.00 | 84 | 1008.7 |
| 20260502114519 | 79 | 135 | 6.1 | 11.3 | 0.00 | 0.00 | 0.00 | 84 | 1008.5 |
| 20260502113016 | 80 | 149 | 7.0 | 13.9 | 0.00 | 0.00 | 0.00 | 84 | 1008.3 |
| 20260502111514 | 80 | 139 | 8.7 | 13.0 | 0.00 | 0.00 | 0.00 | 83 | 1008.1 |
| 20260502110019 | 80 | 117 | 7.8 | 14.8 | 0.00 | 0.00 | 0.00 | 84 | 1007.9 |
| 20260502104513 | 80 | 144 | 8.7 | 15.6 | 0.00 | 0.00 | 0.00 | 83 | 1007.8 |
| 20260502103013 | 80 | 145 | 7.8 | 13.9 | 0.00 | 0.00 | 0.00 | 83 | 1007.6 |
| 20260502101511 | 80 | 157 | 8.7 | 13.9 | 0.00 | 0.00 | 0.00 | 83 | 1007.5 |
| 20260502091506 | 80 | 142 | 9.6 | 18.2 | 0.00 | 0.00 | 0.00 | 82 | 1007.3 |
| 20260502070052 | 82 | 142 | 11.3 | 17.4 | 0.00 | 0.00 | 0.00 | 76 | 1008.0 |
| 20260502064646 | 82 | 142 | 9.6 | 14.8 | 0.00 | 0.00 | 0.00 | 75 | 1007.9 |
| 20260502063043 | 83 | 130 | 7.0 | 13.0 | 0.00 | 0.00 | 0.00 | 75 | 1007.8 |
| 20260502061541 | 83 | 139 | 7.8 | 14.8 | 0.00 | 0.00 | 0.00 | 74 | 1008.0 |
| 20260502060037 | 83 | 140 | 7.0 | 13.9 | 0.00 | 0.00 | 0.00 | 74 | 1008.1 |
| 20260502054536 | 84 | 137 | 10.4 | 15.6 | 0.00 | 0.00 | 0.00 | 73 | 1008.0 |
| 20260502053037 | 84 | 147 | 8.7 | 20.0 | 0.00 | 0.00 | 0.00 | 72 | 1008.0 |
| 20260502051535 | 85 | 136 | 14.8 | 20.0 | 0.00 | 0.00 | 0.00 | 72 | 1007.9 |
| 20260502050034 | 85 | 135 | 13.9 | 20.0 | 0.00 | 0.00 | 0.00 | 71 | 1007.8 |
| 20260502044533 | 86 | 126 | 12.2 | 20.0 | 0.00 | 0.00 | 0.00 | 70 | 1007.9 |
| 20260502043033 | 86 | 134 | 13.0 | 20.9 | 0.00 | 0.00 | 0.00 | 69 | 1007.7 |
| 20260502041533 | 87 | 140 | 12.2 | 18.2 | 0.00 | 0.00 | 0.00 | 68 | 1007.7 |
| 20260502040037 | 88 | 151 | 9.6 | 16.5 | 0.00 | 0.00 | 0.00 | 67 | 1007.6 |
| 20260502034530 | 88 | 142 | 13.9 | 20.0 | 0.00 | 0.00 | 0.00 | 66 | 1007.3 |
| 20260502033032 | 89 | 163 | 12.2 | 19.1 | 0.00 | 0.00 | 0.00 | 65 | 1007.2 |
| 20260502031531 | 90 | 136 | 8.7 | 15.6 | 0.00 | 0.00 | 0.00 | 64 | 1006.9 |
| 20260502030028 | 90 | 152 | 8.7 | 19.1 | 0.00 | 0.00 | 0.00 | 63 | 1006.5 |
| 20260502024528 | 91 | 66 | 14.8 | 20.9 | 0.00 | 0.00 | 0.00 | 62 | 1006.4 |
| 20260502023027 | 92 | 145 | 10.4 | 16.5 | 0.00 | 0.00 | 0.00 | 60 | 1006.0 |
| 20260502021526 | 93 | 156 | 8.7 | 17.4 | 0.00 | 0.00 | 0.00 | 56 | 1005.5 |
| 20260502020026 | 94 | 135 | 11.3 | 19.1 | 0.00 | 0.00 | 0.00 | 54 | 1005.2 |
| 20260502014531 | 95 | 166 | 6.1 | 13.9 | 0.00 | 0.00 | 0.00 | 50 | 1004.9 |
| 20260502013124 | 95 | 153 | 6.1 | 13.0 | 0.00 | 0.00 | 0.00 | 48 | 1004.7 |
| 20260502011529 | 96 | 145 | 7.0 | 11.3 | 0.00 | 0.00 | 0.00 | 46 | 1004.3 |
| 20260502010023 | 96 | 152 | 7.0 | 13.0 | 0.00 | 0.00 | 0.00 | 45 | 1004.1 |
| 20260502004523 | 97 | 144 | 7.8 | 13.0 | 0.00 | 0.00 | 0.00 | 44 | 1003.9 |
| 20260502003022 | 97 | 132 | 8.7 | 13.9 | 0.00 | 0.00 | 0.00 | 43 | 1003.7 |
| 20260502001522 | 98 | 140 | 9.6 | 14.8 | 0.00 | 0.00 | 0.00 | 43 | 1003.7 |
| 20260502000021 | 99 | 167 | 8.7 | 13.0 | 0.00 | 0.00 | 0.00 | 42 | 1003.4 |
| 20260501234520 | 99 | 144 | 8.7 | 11.3 | 0.00 | 0.00 | 0.00 | 41 | 1003.5 |